星链-37398(STARLINK-37398)

导读

STARLINK-37398(NORAD编号69249)是美国太空探索技术公司(SpaceX)星链(Starlink)星座的低轨通信卫星,星链项目旨在通过大规模低轨道卫星组网,为全球提供高速低延迟的卫星互联网服务,重点覆盖地面基础设施难以抵达的偏远地区、海洋与空域。 作为星链星座的一员,该卫星运行于近地轨道,依托星座规模化部署,参与实现全球宽带网络覆盖,可支持民用消费互联网接入,同时星链卫星也已被应用于应急通信与军事通信场景。星链计划总共规划部署约4.2万颗卫星,当前仍在持续推进发射组网,STARLINK-37399是其星座扩容过程中的一员,不过星链大规模低轨部署也引发了太空拥堵、天文观测干扰等争议。

基本信息
目录编号:
69249
目录名称:
STARLINK-37398
国际标识:
2026-117M
轨道中心:
EARTH
卫星名称:
星链-37398
卫星全名:
星链-37398(STARLINK-37398)
卫星状态:
在轨 (已飞行98 天)
发射日期:
2026-05-29 UTC
国别 :
美国 (US)
星等 :
--
轨道信息
数据来源 国际轨道数据 AOE轨道数据
星历时间 2026-09-03T23:48:18+0800
16小时前
查看轨道信息
2026-09-03T23:00:00+0800
16小时前
查看轨道信息
半长轴 6840.807km 6840.904km
偏心率 0.0000314 0.0001522
轨道倾角 53.158° 53.155°
近地点辐角 38.002° 85.283°
升交点赤经 232.321° 232.479°
平近点角 322.100° 89.379°
近地点 462.455km 461.725km
远地点 462.885km 463.809km
周期 93.847分钟 93.849分钟
每日圈数 15.344113 15.343788
详细信息
固有亮度:
5
最大亮度:
2.5
卫星平台:
Starlink V1.0
覆盖范围:
全球
运营商:
太空探索技术公司
运营商所在国:
美国
制造商(研发单位):
太空探索技术公司
制造商所在国:
美国
使用方式:
暂无
卫星简介
Starlink 计划是 SpaceX 推出的全球卫星互联网项目,通过发射低轨道卫星,为全球尤其是偏远地区提供高速、低延迟的互联网服务。自 2019 年起,Starlink 已部署数千颗卫星,旨在缩小全球数字鸿沟,推动互联网普及。该项目还为军事、航空等行业提供通信支持,带来广泛经济效益。
2D轨道图
3D轨道图
轨道高度分析图
轨道倾角分析图
轨道综合分析图
查看轨道综合分析图